Torna al catalogo

USA 171

AttivoMilitareGEO
NORAD 27937·PAYLOAD·🇺🇸 United States

Lanciato Sep 9, 2003 da Cape Canaveral Space Force Station

Loading…

TLE

AggiornatoSource: Mike McCants

Epoca: Sep 14, 2026, 22:00 UTC

1 27937U 03041A   26257.91730201  .00000000  00000-0  00000-0 0    04
2 27937  15.2216  31.8803 0033464 258.2136 101.4179  1.00270000 14566

Traccia USA 171 in tempo reale con AllMySat

Download on the App Store